Location: Nag� el Ma?a??a
(24.0667°N, 32.8833°E)
Time: 15:54:09
(UTC+00:00)

Meteor 1-19 Rocket - Pass Details

Date: 25 September 2021
Orbit: 808 x 927 km, 81.2° (Epoch: 16 October)

Event Time Altitude Azimuth Distance (km) Brightness Sun altitude
Rises 02:46:39 0° 192° (SSW) 3,328 7.1 -12.6°
Reaches altitude 10° 02:49:03 10° 195° (SSW) 2,390 6.4 -12.0°
Maximum altitude 02:54:24 67° 277° (W) 871 4.1 -10.8°
Drops below altitude 10° 02:59:45 10° 0° (N) 2,394 6.6 -9.6°
Sets 03:02:10 0° 3° (N) 3,334 7.4 -9.0°
